Погода в Новониколаевке

Украина / Запорожская область     47˚58′34″N   35˚54′26″E
темп.,
°C
ветер,
м/с
пор.,
м/с
влажн.,
%
обл.,
%
осадки,
мм/ч
давл.,
гПа
погр.,
м
17 января, вс
вс1723:00−10˚юз1288100 0.0 101621
02:00−11˚с1190100 0.0 101521
05:00−11˚с3596100 0.0 1014111
08:00−13˚с479699 0.0 1014207
11:00−11˚ссв4692100 0.0 1014264
14:00−11˚с6990100 0.0 1013331
17:00−11˚ссв5890100 0.0 1013350
20:00−11˚с5894100 0.8 1014313
18 января, пн
пн1823:00−11˚с5795100 1.8 1014280
02:00−12˚с5795100 3.1 1014287
05:00−13˚с369594 0.3 1014203
08:00−13˚с359696 0.4 1016177
11:00−11˚ссв239065 0.0 1017301
14:00−10˚зсз239383 0.2 1016268
17:00−11˚зсз2296100 0.4 101851
20:00−14˚зсз2396100 0.4 101825
19 января, вт
вт1923:00−15˚сз2395100 0.0 101926
02:00−16˚зсз2294100 0.0 101924
05:00−18˚зсз239628 0.0 101923
08:00−19˚зсз339625 0.0 102039
11:00−14˚зсз239044 0.0 1021258
14:00−12˚з468965 0.0 1020477
17:00−15˚зсз239397 0.0 102120
20:00−16˚з129491 0.0 102220
20 января, ср
ср2023:00−17˚з129497 0.0 102320
02:00−18˚юз229658 0.0 102420
05:00−18˚ююз129724 0.0 102420
08:00−18˚ююз129644 0.0 102520
11:00−13˚ююз12886 0.0 1025190
14:00−11˚ю11857 0.0 1025256
17:00−15˚вюв22923 0.0 102620
20:00−16˚юв33902 0.0 102721
21 января, чт
чт2123:00−16˚юв33890 0.0 102725
02:00−14˚юв33850 0.0 102729
05:00−13˚юв34950 0.0 102757
08:00−11˚юв479620 0.0 1027110
11:00−6˚ююв599455 0.0 1028289
14:00−3˚ююв589375 0.1 1026375
17:00−5˚юв599584 0.0 1026180
20:00−5˚ююв479569 0.0 1026174